Location: Cedar Falls
(42.5280°N, 92.4450°W)
Time: 17:31:10
(UTC-05:00)

NOSS 3-1 (C) - Visible Passes

Search period start: 23 May 2017 00:00
Search period end: 02 June 2017 00:00
Orbit: 829 x 1380 km, 63.4° (Epoch: 22 May)

Date Brightness Start Highest point End Pass type
(mag) Time Alt. Az. Time Alt. Az. Time Alt. Az.
23 May 4.1 01:01:54 10° NNW 01:09:28 75° NE 01:13:13 36° SE visible
23 May 4.9 02:53:39 10° WNW 03:00:00 28° WSW 03:00:34 27° WSW visible
23 May 5.9 22:26:23 10° NNW 22:31:22 19° NNE 22:36:42 10° ENE visible
24 May 4.6 00:16:42 10° NNW 00:24:01 53° NE 00:28:43 26° ESE visible
24 May 4.5 02:07:47 10° NW 02:14:58 42° WSW 02:16:05 40° SW visible
24 May 6.1 21:41:09 10° NNW 21:45:15 16° NNE 21:49:36 10° NE visible
24 May 5.0 23:31:33 10° NNW 23:38:24 38° NE 23:44:20 16° ESE visible
25 May 4.1 01:22:14 10° NW 01:29:47 63° WSW 01:31:41 51° S visible
25 May 5.8 03:16:32 10° W 03:19:03 13° W 03:19:03 13° W visible
25 May 5.4 22:46:26 10° NNW 22:52:39 29° NE 22:59:26 10° E visible
26 May 4.0 00:36:52 10° NW 00:44:30 90° NE 00:47:23 46° SE visible
26 May 5.3 02:29:10 10° WNW 02:34:45 22° WSW 02:34:45 22° WSW visible
26 May 5.7 22:01:18 10° NNW 22:06:45 22° NNE 22:12:37 10° ENE visible
26 May 4.3 23:51:37 10° NNW 23:59:06 64° NE 00:03:09 32° ESE visible
27 May 4.8 01:43:02 10° NW 01:49:48 34° WSW 01:50:31 33° WSW visible
27 May 5.9 21:16:07 10° NNW 21:20:41 17° NNE 21:25:35 10° ENE visible
27 May 4.7 23:06:27 10° NNW 23:13:34 46° NE 23:18:59 20° ESE visible
28 May 4.3 00:57:20 10° NW 01:04:42 51° WSW 01:06:21 45° SSW visible
28 May 5.2 22:21:19 10° NNW 22:27:54 33° NE 22:34:52 11° E visible
29 May 4.0 00:11:52 10° NW 00:19:29 75° WSW 00:22:15 46° SSE visible
29 May 5.6 02:05:01 10° WNW 02:09:33 16° WSW 02:09:37 16° WSW visible
29 May 5.5 21:36:11 10° NNW 21:42:05 25° NNE 21:48:28 10° E visible
29 May 4.1 23:26:34 10° NW 23:34:09 78° NE 23:38:11 34° SE visible
30 May 5.1 01:18:24 10° WNW 01:24:38 27° WSW 01:25:34 26° WSW visible
30 May 4.5 22:41:21 10° NNW 22:48:41 55° NE 22:54:10 22° ESE visible
31 May 4.7 00:32:30 10° NW 00:39:36 41° WSW 00:41:34 36° SW visible
31 May 4.9 21:56:12 10° NNW 22:03:06 40° NE 22:10:13 12° ESE visible
31 May 4.2 23:46:55 10° NW 23:54:26 61° WSW 23:57:37 39° S visible
01 Jun 5.9 01:41:34 10° W 01:44:15 12° WSW 01:45:00 12° WSW visible
01 Jun 5.3 21:11:05 10° NNW 21:17:21 29° NE 21:24:14 10° E visible
01 Jun 4.0 23:01:32 10° NW 23:09:10 87° SW 23:13:42 31° SSE visible
